| time (UTC) | temp C | wind direction | speed KPH | gust KPH | rain 1hr cm | rain 24hr cm | rain mn cm | humidity % | barometer mb |
| 20260503185505 | 17 | 267 | 16.1 | 27.4 | 0.00 | 0.03 | 0.00 | 52 | 999.0 |
| 20260503184505 | 16 | 297 | 14.5 | 25.7 | 0.00 | 0.03 | 0.00 | 52 | 999.1 |
| 20260503183505 | 16 | 0 | 14.5 | 27.4 | 0.00 | 0.03 | 0.00 | 51 | 999.1 |
| 20260503183005 | 16 | 270 | 16.1 | 29.0 | 0.00 | 0.03 | 0.00 | 53 | 999.1 |
| 20260503182506 | 16 | 236 | 4.8 | 14.5 | 0.00 | 0.03 | 0.00 | 53 | 999.2 |
| 20260503182006 | 16 | 266 | 12.9 | 22.5 | 0.00 | 0.03 | 0.00 | 52 | 999.3 |
| 20260503181505 | 16 | 274 | 19.3 | 27.4 | 0.00 | 0.03 | 0.00 | 54 | 999.4 |
| 20260503180505 | 16 | 261 | 17.7 | 29.0 | 0.00 | 0.03 | 0.00 | 53 | 999.3 |
| 20260503180005 | 16 | 270 | 4.8 | 25.7 | 0.00 | 0.03 | 0.00 | 50 | 999.2 |
| 20260503175505 | 16 | 280 | 9.7 | 24.1 | 0.00 | 0.03 | 0.00 | 56 | 999.3 |
| 20260503175005 | 16 | 293 | 9.7 | 20.9 | 0.00 | 0.05 | 0.00 | 53 | 999.4 |
| 20260503174505 | 16 | 275 | 16.1 | 32.2 | 0.00 | 0.05 | 0.00 | 53 | 999.4 |
| 20260503173505 | 16 | 262 | 12.9 | 29.0 | 0.00 | 0.08 | 0.00 | 56 | 999.3 |
| 20260503173005 | 15 | 310 | 14.5 | 32.2 | 0.00 | 0.08 | 0.00 | 53 | 999.4 |
| 20260503172504 | 15 | 294 | 16.1 | 29.0 | 0.00 | 0.08 | 0.00 | 56 | 999.4 |
| 20260503172005 | 16 | 280 | 17.7 | 27.4 | 0.00 | 0.10 | 0.00 | 54 | 999.5 |
| 20260503171505 | 15 | 276 | 12.9 | 22.5 | 0.00 | 0.10 | 0.00 | 57 | 999.5 |
| 20260503171005 | 15 | 321 | 14.5 | 25.7 | 0.00 | 0.10 | 0.00 | 53 | 999.5 |
| 20260503151005 | 14 | 323 | 11.3 | 22.5 | 0.00 | 0.23 | 0.00 | 62 | 1000.0 |
| 20260503131005 | 11 | 323 | 6.4 | 16.1 | 0.00 | 0.23 | 0.00 | 74 | 999.6 |
| 20260503130505 | 11 | 330 | 11.3 | 19.3 | 0.00 | 0.25 | 0.00 | 75 | 999.6 |
| 20260503110504 | 7 | 291 | 0.0 | 0.0 | 0.00 | 0.38 | 0.00 | 93 | 998.0 |
| 20260503090505 | 7 | 290 | 0.0 | 0.0 | 0.00 | 0.38 | 0.00 | 91 | 996.3 |
| 20260503081504 | 7 | 290 | 3.2 | 4.8 | 0.00 | 0.38 | 0.00 | 91 | 995.6 |
| 20260503081004 | 7 | 290 | 4.8 | 4.8 | 0.00 | 0.38 | 0.00 | 91 | 995.6 |
| 20260503080505 | 7 | 290 | 3.2 | 4.8 | 0.00 | 0.38 | 0.00 | 91 | 995.5 |
| 20260503072505 | 7 | 290 | 4.8 | 4.8 | 0.00 | 0.38 | 0.00 | 91 | 995.2 |
| 20260503071505 | 7 | 290 | 4.8 | 8.0 | 0.00 | 0.38 | 0.00 | 90 | 995.1 |
| 20260503071004 | 7 | 290 | 1.6 | 4.8 | 0.00 | 0.38 | 0.00 | 90 | 995.0 |
| 20260503070504 | 7 | 290 | 0.0 | 0.0 | 0.00 | 0.38 | 0.00 | 90 | 994.9 |
| 20260503055005 | 9 | 290 | 4.8 | 8.0 | 0.00 | 0.38 | 0.00 | 88 | 994.7 |
| 20260503054504 | 9 | 291 | 4.8 | 4.8 | 0.00 | 0.38 | 0.00 | 88 | 994.6 |
| 20260503053504 | 9 | 337 | 3.2 | 4.8 | 0.00 | 0.38 | 0.00 | 87 | 994.7 |
| 20260503053005 | 9 | 337 | 1.6 | 3.2 | 0.00 | 0.38 | 0.00 | 87 | 994.6 |
| 20260503052504 | 10 | 337 | 0.0 | 4.8 | 0.00 | 0.38 | 0.00 | 87 | 994.6 |
| 20260503052004 | 10 | 337 | 0.0 | 0.0 | 0.00 | 0.38 | 0.00 | 87 | 994.5 |
| 20260503051504 | 10 | 337 | 0.0 | 0.0 | 0.00 | 0.38 | 0.00 | 87 | 994.6 |
| 20260503051004 | 10 | 337 | 0.0 | 0.0 | 0.00 | 0.38 | 0.00 | 87 | 994.7 |
| 20260503050504 | 10 | 337 | 0.0 | 0.0 | 0.00 | 0.38 | 0.00 | 87 | 994.7 |
| 20260503050004 | 10 | 337 | 0.0 | 0.0 | 0.00 | 0.38 | 0.00 | 87 | 994.7 |
| 20260503045504 | 10 | 337 | 0.0 | 0.0 | 0.00 | 0.38 | 0.00 | 87 | 994.8 |
| 20260503045004 | 10 | 337 | 0.0 | 0.0 | 0.00 | 0.38 | 0.00 | 87 | 994.7 |
| 20260503044504 | 10 | 337 | 0.0 | 0.0 | 0.00 | 0.38 | 0.00 | 87 | 994.8 |
| 20260503044004 | 10 | 337 | 1.6 | 4.8 | 0.00 | 0.38 | 0.00 | 87 | 994.8 |
| 20260503043505 | 10 | 337 | 3.2 | 4.8 | 0.00 | 0.38 | 0.00 | 87 | 994.8 |
| 20260503043004 | 10 | 337 | 3.2 | 4.8 | 0.00 | 0.38 | 0.00 | 87 | 994.6 |
| 20260503042504 | 10 | 337 | 4.8 | 4.8 | 0.00 | 0.38 | 0.00 | 87 | 994.5 |
| 20260503042004 | 10 | 337 | 0.0 | 4.8 | 0.00 | 0.38 | 0.00 | 88 | 994.5 |
| 20260503041504 | 10 | 337 | 3.2 | 4.8 | 0.00 | 0.38 | 0.00 | 88 | 994.6 |
| 20260503041004 | 10 | 338 | 1.6 | 4.8 | 0.00 | 0.38 | 0.00 | 88 | 994.8 |
| 20260503040504 | 10 | 337 | 3.2 | 8.0 | 0.00 | 0.38 | 0.00 | 89 | 994.6 |
| 20260503040004 | 10 | 335 | 0.0 | 4.8 | 0.00 | 0.38 | 0.00 | 89 | 994.6 |
| 20260503035504 | 10 | 337 | 0.0 | 0.0 | 0.00 | 0.38 | 0.38 | 89 | 994.7 |
| 20260503035004 | 10 | 337 | 0.0 | 0.0 | 0.00 | 0.38 | 0.38 | 89 | 994.8 |
| 20260503034504 | 10 | 337 | 0.0 | 0.0 | 0.00 | 0.38 | 0.38 | 88 | 994.6 |
| 20260503034004 | 10 | 337 | 0.0 | 0.0 | 0.00 | 0.38 | 0.38 | 88 | 994.6 |
| 20260503033504 | 10 | 337 | 1.6 | 4.8 | 0.00 | 0.38 | 0.38 | 88 | 994.6 |
| 20260503032504 | 10 | 337 | 0.0 | 4.8 | 0.00 | 0.38 | 0.38 | 89 | 994.5 |
| 20260503032004 | 10 | 337 | 0.0 | 0.0 | 0.00 | 0.38 | 0.38 | 88 | 994.7 |
| 20260503031504 | 10 | 337 | 0.0 | 0.0 | 0.00 | 0.41 | 0.38 | 88 | 994.6 |
| 20260503030504 | 10 | 337 | 0.0 | 0.0 | 0.00 | 0.56 | 0.38 | 88 | 994.5 |
| 20260503030004 | 10 | 337 | 0.0 | 0.0 | 0.00 | 0.56 | 0.38 | 87 | 994.6 |
| 20260503025004 | 10 | 337 | 0.0 | 0.0 | 0.00 | 0.58 | 0.38 | 87 | 994.4 |
| 20260503024505 | 10 | 337 | 0.0 | 0.0 | 0.00 | 0.64 | 0.38 | 87 | 994.6 |
| 20260503024004 | 10 | 337 | 0.0 | 0.0 | 0.00 | 0.64 | 0.38 | 87 | 994.6 |
| 20260503023503 | 10 | 337 | 0.0 | 0.0 | 0.00 | 0.64 | 0.38 | 87 | 994.3 |
| 20260503023004 | 11 | 337 | 0.0 | 0.0 | 0.00 | 0.64 | 0.38 | 87 | 994.4 |
| 20260503022504 | 11 | 337 | 0.0 | 0.0 | 0.00 | 0.64 | 0.38 | 87 | 994.6 |
| 20260503022004 | 11 | 337 | 0.0 | 0.0 | 0.00 | 0.64 | 0.38 | 87 | 994.7 |
| 20260503021504 | 11 | 337 | 0.0 | 0.0 | 0.00 | 0.64 | 0.38 | 87 | 994.6 |
| 20260503021004 | 11 | 337 | 0.0 | 0.0 | 0.00 | 0.64 | 0.38 | 86 | 994.6 |
| 20260503020004 | 11 | 337 | 0.0 | 0.0 | 0.00 | 0.64 | 0.38 | 86 | 994.5 |
| 20260503015503 | 11 | 337 | 0.0 | 0.0 | 0.00 | 0.64 | 0.38 | 86 | 994.4 |
| 20260503015004 | 11 | 337 | 0.0 | 0.0 | 0.00 | 0.64 | 0.38 | 85 | 994.5 |
| 20260503014004 | 11 | 337 | 0.0 | 0.0 | 0.00 | 0.64 | 0.38 | 85 | 994.5 |
| 20260503013504 | 11 | 337 | 0.0 | 3.2 | 0.00 | 0.64 | 0.38 | 84 | 994.5 |
| 20260503013004 | 11 | 337 | 1.6 | 4.8 | 0.00 | 0.64 | 0.38 | 83 | 994.3 |
| 20260503012504 | 11 | 337 | 1.6 | 3.2 | 0.00 | 0.64 | 0.38 | 84 | 994.3 |
| 20260503012003 | 11 | 337 | 0.0 | 0.0 | 0.00 | 0.64 | 0.38 | 84 | 994.3 |
| 20260503011504 | 11 | 337 | 0.0 | 0.0 | 0.00 | 0.64 | 0.38 | 84 | 994.2 |
| 20260503010504 | 11 | 337 | 1.6 | 4.8 | 0.00 | 0.64 | 0.38 | 84 | 994.1 |
| 20260503010004 | 11 | 337 | 1.6 | 4.8 | 0.00 | 0.64 | 0.38 | 85 | 994.1 |
| 20260503005503 | 11 | 337 | 1.6 | 4.8 | 0.00 | 0.64 | 0.38 | 85 | 994.0 |
| 20260503005004 | 11 | 337 | 1.6 | 4.8 | 0.00 | 0.66 | 0.38 | 85 | 993.9 |
| 20260503004504 | 11 | 337 | 1.6 | 4.8 | 0.00 | 0.66 | 0.38 | 85 | 994.0 |
| 20260503004004 | 11 | 337 | 3.2 | 4.8 | 0.00 | 0.66 | 0.38 | 85 | 994.0 |
| 20260503003504 | 11 | 337 | 1.6 | 4.8 | 0.00 | 0.66 | 0.38 | 86 | 994.0 |
| 20260503003004 | 11 | 337 | 1.6 | 4.8 | 0.00 | 0.66 | 0.38 | 86 | 994.1 |
| 20260503002504 | 11 | 337 | 3.2 | 4.8 | 0.00 | 0.69 | 0.38 | 86 | 994.1 |
| 20260503002003 | 11 | 337 | 0.0 | 4.8 | 0.00 | 0.69 | 0.38 | 87 | 993.9 |
| 20260503001504 | 11 | 337 | 3.2 | 4.8 | 0.00 | 0.69 | 0.38 | 87 | 993.8 |
| 20260503001003 | 11 | 337 | 3.2 | 4.8 | 0.00 | 0.69 | 0.38 | 87 | 993.8 |
| 20260503000504 | 12 | 337 | 3.2 | 4.8 | 0.00 | 0.69 | 0.38 | 87 | 993.7 |
| 20260502235503 | 12 | 337 | 1.6 | 4.8 | 0.00 | 0.69 | 0.38 | 87 | 993.7 |
| 20260502235005 | 12 | 337 | 1.6 | 4.8 | 0.00 | 0.69 | 0.38 | 87 | 993.4 |
| 20260502234505 | 12 | 337 | 1.6 | 4.8 | 0.00 | 0.69 | 0.38 | 87 | 993.3 |
| 20260502234005 | 12 | 337 | 3.2 | 4.8 | 0.00 | 0.69 | 0.38 | 87 | 993.2 |
| 20260502233506 | 12 | 337 | 1.6 | 4.8 | 0.00 | 0.69 | 0.38 | 87 | 993.2 |
| 20260502232505 | 12 | 337 | 0.0 | 0.0 | 0.00 | 0.69 | 0.38 | 87 | 993.2 |
| 20260502231505 | 12 | 337 | 1.6 | 4.8 | 0.00 | 0.69 | 0.38 | 86 | 993.0 |
| 20260502231006 | 12 | 337 | 1.6 | 8.0 | 0.00 | 0.69 | 0.38 | 86 | 993.0 |
| 20260502230506 | 12 | 338 | 1.6 | 3.2 | 0.00 | 0.69 | 0.38 | 86 | 993.0 |
| 20260502230005 | 12 | 338 | 0.0 | 4.8 | 0.00 | 0.69 | 0.38 | 86 | 992.9 |
| 20260502225505 | 12 | 338 | 4.8 | 4.8 | 0.00 | 0.69 | 0.38 | 86 | 993.0 |
| 20260502225006 | 12 | 339 | 3.2 | 4.8 | 0.00 | 0.69 | 0.38 | 85 | 993.1 |
| 20260502224505 | 12 | 345 | 3.2 | 4.8 | 0.00 | 0.69 | 0.38 | 85 | 993.2 |
| 20260502223506 | 12 | 345 | 3.2 | 8.0 | 0.00 | 0.69 | 0.38 | 85 | 993.1 |
| 20260502223005 | 12 | 345 | 3.2 | 4.8 | 0.00 | 0.69 | 0.38 | 85 | 993.1 |
| 20260502222005 | 12 | 348 | 3.2 | 8.0 | 0.00 | 0.69 | 0.38 | 84 | 993.1 |
| 20260502221006 | 12 | 11 | 3.2 | 4.8 | 0.00 | 0.69 | 0.38 | 84 | 993.0 |
| 20260502220005 | 12 | 11 | 1.6 | 4.8 | 0.00 | 0.69 | 0.38 | 84 | 993.2 |
| 20260502215505 | 12 | 11 | 3.2 | 4.8 | 0.00 | 0.69 | 0.38 | 84 | 993.2 |
| 20260502215005 | 12 | 11 | 1.6 | 4.8 | 0.00 | 0.69 | 0.38 | 84 | 993.2 |
| 20260502214005 | 12 | 10 | 3.2 | 4.8 | 0.03 | 0.69 | 0.38 | 84 | 993.3 |
| 20260502213505 | 12 | 3 | 4.8 | 8.0 | 0.03 | 0.69 | 0.38 | 84 | 993.3 |
| 20260502212506 | 12 | 355 | 6.4 | 9.7 | 0.03 | 0.69 | 0.38 | 85 | 993.2 |
| 20260502212005 | 12 | 34 | 3.2 | 8.0 | 0.03 | 0.69 | 0.38 | 86 | 993.2 |
| 20260502211505 | 12 | 343 | 8.0 | 14.5 | 0.03 | 0.69 | 0.38 | 87 | 993.2 |
| 20260502211005 | 12 | 18 | 4.8 | 14.5 | 0.03 | 0.69 | 0.38 | 88 | 993.0 |
| 20260502210005 | 12 | 21 | 4.8 | 11.3 | 0.03 | 0.69 | 0.38 | 90 | 993.0 |
| 20260502205505 | 12 | 2 | 8.0 | 12.9 | 0.03 | 0.69 | 0.38 | 90 | 992.9 |
| 20260502205005 | 12 | 25 | 8.0 | 16.1 | 0.03 | 0.69 | 0.38 | 90 | 993.0 |
| 20260502204505 | 12 | 0 | 4.8 | 16.1 | 0.03 | 0.69 | 0.38 | 90 | 993.0 |
| 20260502204005 | 12 | 356 | 4.8 | 12.9 | 0.00 | 0.66 | 0.36 | 90 | 993.1 |
| 20260502203505 | 12 | 20 | 3.2 | 4.8 | 0.00 | 0.66 | 0.36 | 90 | 993.0 |
| 20260502203005 | 12 | 344 | 3.2 | 8.0 | 0.00 | 0.66 | 0.36 | 90 | 993.1 |
| 20260502202505 | 12 | 18 | 3.2 | 8.0 | 0.00 | 0.66 | 0.36 | 90 | 993.2 |
| 20260502201505 | 12 | 20 | 6.4 | 14.5 | 0.00 | 0.66 | 0.36 | 90 | 993.1 |
| 20260502201005 | 12 | 35 | 4.8 | 12.9 | 0.00 | 0.66 | 0.36 | 90 | 993.2 |
| 20260502200505 | 12 | 31 | 8.0 | 14.5 | 0.00 | 0.66 | 0.36 | 90 | 993.1 |
| 20260502200005 | 12 | 28 | 11.3 | 19.3 | 0.00 | 0.66 | 0.36 | 90 | 993.0 |
| 20260502195005 | 12 | 12 | 9.7 | 14.5 | 0.00 | 0.66 | 0.36 | 90 | 993.2 |
| 20260502194505 | 11 | 2 | 6.4 | 12.9 | 0.00 | 0.66 | 0.36 | 90 | 993.1 |
| 20260502194005 | 11 | 26 | 9.7 | 16.1 | 0.00 | 0.66 | 0.36 | 90 | 993.2 |
| 20260502193505 | 11 | 38 | 6.4 | 11.3 | 0.00 | 0.66 | 0.36 | 90 | 993.2 |
| 20260502192505 | 11 | 43 | 4.8 | 11.3 | 0.00 | 0.66 | 0.36 | 90 | 993.8 |
| 20260502192005 | 11 | 18 | 11.3 | 19.3 | 0.00 | 0.66 | 0.36 | 90 | 993.7 |
| 20260502191505 | 11 | 43 | 11.3 | 16.1 | 0.00 | 0.66 | 0.36 | 91 | 993.7 |
| 20260502191005 | 11 | 35 | 9.7 | 16.1 | 0.00 | 0.66 | 0.36 | 91 | 993.7 |